TimePST,TemperatureF,Dew PointF,Humidity,Sea Level PressureIn,VisibilityMPH,Wind Direction,Wind SpeedMPH,Gust SpeedMPH,PrecipitationIn,Events,Conditions,WindDirDegrees,DateUTC
12:25 AM,55.4,55.4,100,30.03,2.5,WNW,15.0,20.7,0.09,Rain,Heavy Rain,300,2012-11-18 08:25:00
12:35 AM,53.6,53.6,100,30.03,1.8,NW,9.2,20.7,0.18,Rain,Heavy Rain,310,2012-11-18 08:35:00
12:53 AM,54.0,54.0,100,30.04,2.0,NW,9.2,-,0.32,Rain,Heavy Rain,320,2012-11-18 08:53:00
1:13 AM,53.6,53.6,100,30.04,2.0,NNW,8.1,-,0.07,Rain,Heavy Rain,330,2012-11-18 09:13:00
1:23 AM,53.6,53.6,100,30.04,3.0,NW,8.1,-,0.09,Rain,Rain,320,2012-11-18 09:23:00
1:39 AM,53.6,53.6,100,30.05,2.0,NNW,5.8,-,0.12,Rain,Rain,330,2012-11-18 09:39:00
1:53 AM,53.1,52.0,96,30.04,3.0,NNE,8.1,-,0.14,Rain,Light Rain,30,2012-11-18 09:53:00
2:26 AM,53.6,51.8,94,30.04,10.0,NE,5.8,-,0.00,,Overcast,40,2012-11-18 10:26:00
2:53 AM,53.1,51.1,93,30.05,10.0,Calm,Calm,-,0.00,,Overcast,0,2012-11-18 10:53:00
3:53 AM,53.1,52.0,96,30.06,10.0,SE,3.5,-,N/A,,Overcast,130,2012-11-18 11:53:00
4:53 AM,52.0,52.0,100,30.06,10.0,South,3.5,-,N/A,,Overcast,170,2012-11-18 12:53:00
5:53 AM,51.1,51.1,100,30.08,10.0,Calm,Calm,-,N/A,,Clear,0,2012-11-18 13:53:00
6:53 AM,51.1,51.1,100,30.10,10.0,Calm,Calm,-,N/A,,Clear,0,2012-11-18 14:53:00
7:53 AM,52.0,52.0,100,30.11,10.0,SE,3.5,-,N/A,,Clear,140,2012-11-18 15:53:00
8:53 AM,54.0,52.0,93,30.12,10.0,SE,3.5,-,N/A,,Clear,140,2012-11-18 16:53:00
9:53 AM,57.0,51.1,81,30.13,10.0,SSE,3.5,-,N/A,,Clear,150,2012-11-18 17:53:00
10:53 AM,60.1,48.0,64,30.14,10.0,Calm,Calm,-,N/A,,Clear,0,2012-11-18 18:53:00
11:53 AM,60.8,42.8,52,30.12,10.0,Calm,Calm,-,N/A,,Scattered Clouds,0,2012-11-18 19:53:00
12:53 PM,62.1,42.1,48,30.12,10.0,SW,5.8,-,N/A,,Clear,220,2012-11-18 20:53:00
1:53 PM,64.0,44.1,48,30.12,10.0,WNW,6.9,-,N/A,,Partly Cloudy,290,2012-11-18 21:53:00
2:53 PM,63.0,42.1,46,30.12,10.0,North,3.5,-,N/A,,Scattered Clouds,350,2012-11-18 22:53:00
3:53 PM,63.0,42.1,46,30.12,10.0,NNW,5.8,-,N/A,,Clear,340,2012-11-18 23:53:00
4:53 PM,61.0,42.1,50,30.13,10.0,SSW,3.5,-,N/A,,Mostly Cloudy,210,2012-11-19 00:53:00
5:53 PM,59.0,46.9,64,30.14,10.0,WSW,4.6,-,N/A,,Clear,250,2012-11-19 01:53:00
6:53 PM,57.9,46.0,65,30.15,10.0,Calm,Calm,-,N/A,,Clear,0,2012-11-19 02:53:00
7:53 PM,55.9,46.9,72,30.15,10.0,South,3.5,-,N/A,,Clear,180,2012-11-19 03:53:00
8:53 PM,55.4,46.4,72,30.17,10.0,Calm,Calm,-,N/A,,Clear,0,2012-11-19 04:53:00
9:53 PM,54.0,45.0,72,30.18,10.0,SSE,3.5,-,N/A,,Partly Cloudy,150,2012-11-19 05:53:00
10:53 PM,55.0,45.0,69,30.18,10.0,ESE,4.6,-,N/A,,Mostly Cloudy,120,2012-11-19 06:53:00
11:53 PM,54.0,46.0,75,30.18,10.0,SE,5.8,-,N/A,,Overcast,140,2012-11-19 07:53:00